{"data":{"norad_id":66199,"intl_designator":"2025-243Y","name":"STARLINK-35509","alt_names":[],"object_type":"PAYLOAD","status":"ACTIVE","operator":null,"country":"US","launch_date":"2025-10-26","launch_site_code":"AFETR","launch_vehicle":null,"mission":null,"orbit_class":"UNKNOWN","rcs_meters":null,"size_class":null,"mass_kg":null,"dimensions":null,"purposes":["comms"],"wikipedia_slug":null,"has_3d_model":false,"image_url":null,"decayed_at":null,"tle_current":{"epoch":"2026-09-20T21:51:55.596096Z","epoch_age_seconds":64921,"freshness":"FRESH","line1":"1 66199U 25243Y   26263.91106014  .00015131  00000+0  45813-3 0  9992","line2":"2 66199  53.1609  57.7134 0001203 104.0067 256.1069 15.34393924 50555","mean_motion":15.34393924,"eccentricity":0.0001203,"inclination_deg":53.1609,"raan_deg":57.7134,"arg_perigee_deg":104.0067,"mean_anomaly_deg":256.1069,"bstar":0.00045813,"rev_number":5055,"period_min":93.848129706228,"perigee_km":461.89834416574,"apogee_km":463.54425467258,"semimajor_km":6840.8582994192,"source":"CELESTRAK","updated_at":"2026-09-21T09:00:35.838202Z"}}}